Weather History for Kars, Turkey

Change the Weather History Date:

Sunday, October 7, 2012

  Actual Average Record
Temperature  
Mean Temperature 52 °F -  
Max Temperature 69 °F 53 °F - ()
Min Temperature 34 °F 30 °F - ()
Degree Days  
Heating Degree Days 14    
Growing Degree Days 2 (Base 50)    
Moisture  
Dew Point 38 °F    
Average Humidity 65    
Maximum Humidity 100    
Minimum Humidity 17    
Precipitation  
Precipitation 0.01 in 0.05 in - ()
Sea Level Pressure  
Sea Level Pressure 30.28 in    
Wind  
Wind Speed 3 mph ()    
Max Wind Speed 17 mph    
Max Gust Speed -    
Visibility 6.2 miles    
Events      
T = Trace of Precipitation, MM = Missing Value Source: Averaged Metar Reports

Daily Weather History Graph

Daily Weather History Graph

Search for Another Location

Airport:

Trip Planner

Search our weather history database for the weather conditions in past years. The results will help you decide how hot, cold, wet, or windy it might be!

Date:

Astronomy

Oct. 07, 2012 Rise Set
Actual Time 6:10 AM EEST 5:39 PM EEST
Civil Twilight 5:43 AM EEST 6:07 PM EEST
Nautical Twilight 5:11 AM EEST 6:38 PM EEST
Astronomical Twilight 4:39 AM EEST 7:10 PM EEST
Moon 10:29 PM EEST (10/7) 12:33 PM EEST (10/7)
Length of Visible Light 12h 23m
Length of Day
11h 29m
Waning Gibbous, 59% of the Moon is Illuminated
Oct 7
Waning Gibbous
Oct 8
Last Quarter
Oct 15
New
Oct 22
First Quarter
Oct 29
Full

Hourly Weather History & Observations

Time (EEST) Temp. Windchill Dew Point Humidity Pressure Visibility Wind Dir Wind Speed Gust Speed Precip Events Conditions
12:50 AM 42.8 °F - 37.4 °F 81% 30.33 in - Calm Calm - N/A   Clear
1:50 AM 41.0 °F - 37.4 °F 87% 30.33 in - Calm Calm - N/A   Clear
3:00 AM 38 °F - 36 °F 90%  in 6 mi NNW 1.2 mph - -  
3:50 AM 37.4 °F 33.8 °F 35.6 °F 93% 30.30 in - WNW 4.6 mph - N/A   Clear
4:50 AM 35.6 °F - 33.8 °F 93% 30.30 in - Variable 2.3 mph - N/A   Clear
5:50 AM 35.6 °F - 33.8 °F 93% 30.30 in - NNW 1.2 mph - N/A   Clear
6:50 AM 35.6 °F - 35.6 °F 100% 30.33 in - WNW 2.3 mph - N/A   Clear
7:50 AM 41.0 °F - 37.4 °F 87% 30.33 in 6.2 mi Calm Calm - N/A   Scattered Clouds
8:50 AM 50.0 °F - 39.2 °F 66% 30.33 in 6.2 mi Variable 1.2 mph - N/A   Partly Cloudy
9:00 AM 49 °F - 38 °F 56%  in 6 mi SW 1.2 mph - -   Scattered Clouds
9:50 AM 57.2 °F - 41.0 °F 55% 30.33 in 6.2 mi Calm Calm - N/A   Partly Cloudy
10:50 AM 60.8 °F - 41.0 °F 48% 30.30 in 6.2 mi Variable 3.5 mph - N/A   Partly Cloudy
11:50 AM 64.4 °F - 39.2 °F 40% 30.30 in 6.2 mi WSW 3.5 mph - N/A   Scattered Clouds
12:50 PM 66.2 °F - 41.0 °F 40% 30.24 in 6.2 mi East 8.1 mph - N/A   Mostly Cloudy
1:50 PM 66.2 °F - 41.0 °F 40% 30.24 in 6.2 mi ENE 3.5 mph - N/A   Mostly Cloudy
2:50 PM 68.0 °F - 33.8 °F 28% 30.21 in 6.2 mi Variable 4.6 mph - N/A   Mostly Cloudy
3:00 PM 67 °F - 32 °F 17%  in 6 mi West 4.6 mph - -   Mostly Cloudy
3:50 PM 66.2 °F - 35.6 °F 32% 30.21 in 6.2 mi SW 13.8 mph - N/A   Mostly Cloudy
4:50 PM 62.6 °F - 39.2 °F 42% 30.21 in 6.2 mi SSW 17.3 mph - N/A   Scattered Clouds
5:50 PM 57.2 °F - 41.0 °F 55% 30.27 in 6.2 mi West 15.0 mph - N/A   Mostly Cloudy
6:50 PM 53.6 °F - 42.8 °F 67% 30.27 in 6.2 mi West 4.6 mph - N/A   Mostly Cloudy
7:50 PM 50.0 °F - 41.0 °F 71% 30.27 in 6.2 mi SSE 6.9 mph - N/A   Mostly Cloudy
8:50 PM 50.0 °F - 41.0 °F 71% 30.27 in 6.2 mi NW 5.8 mph - N/A   Mostly Cloudy
9:00 PM 49 °F - 42 °F 67%  in 6 mi NW 5.8 mph - -   Partly Cloudy
9:50 PM 48.2 °F - 41.0 °F 76% 30.27 in 6.2 mi SW 5.8 mph - N/A   Mostly Cloudy
10:50 PM 48.2 °F - 39.2 °F 71% 30.27 in 6.2 mi Variable 1.2 mph - N/A   Mostly Cloudy
11:50 PM 46.4 °F 42.4 °F 41.0 °F 81% 30.27 in 6.2 mi West 8.1 mph - N/A   Scattered Clouds